Tracking 22438 objects as of 24-Feb-2021
HD Live streaming from Space Station
objects crossing your sky now

CZ-4 DEB

Track CZ-4 DEB now!
10-day predictions


NORAD ID: 20912
Int'l Code: 1990-081BV
Perigee: 796.1 km
Apogee: 817.5 km
Inclination: 98.5 °
Period: 100.9 minutes
Semi major axis: 7177 km
RCS: 0.0059 m2 (small)
Launch date: September 3, 1990
Source: People's Republic of China (PRC)
Launch site: Taiyaun Space Center, China (TSC)

Note: This is SATELLITE DEBRIS
aabbcc
Your satellite tracking list
Your tracking list is empty




NASA's NSSDC Master Catalog

Two Line Element Set (TLE):
1 20912U 90081BV  21054.52083142  .00000339  00000-0  15474-3 0  9998
2 20912  98.4981  67.5608 0014929 227.3438 284.3389 14.27622767572118
Source of the keplerian elements: AFSPC